Weather History for K96D - January, 2013

Change the Weather History Date:

Friday, January 18, 2013

  Actual Average (KGAF) Record (KGAF)
Temperature  
Mean Temperature 8 °F -  
Max Temperature 12 °F 16 °F 40 °F (1991)
Min Temperature 5 °F -3 °F -35 °F (1970)
Degree Days  
Heating Degree Days 56    
Moisture  
Dew Point 8 °F    
Average Humidity 93    
Maximum Humidity 100    
Minimum Humidity 85    
Precipitation  
Precipitation 0.05 in - - ()
Sea Level Pressure  
Sea Level Pressure 29.81 in    
Wind  
Wind Speed 8 mph (East)    
Max Wind Speed 16 mph    
Max Gust Speed -    
Visibility 8 miles    
Events Snow    
Averages and records for this station are not official NWS values.
T = Trace of Precipitation, MM = Missing Value Source: NWS Daily Summary

Daily Weather History Graph

Daily Weather History Graph

Search for Another Location

Airport or City:

Trip Planner

Search our weather history database for the weather conditions in past years. The results will help you decide how hot, cold, wet, or windy it might be!

Date:

Astronomy

Jan. 18, 2013 Rise Set
Actual Time 8:17 AM CST 5:07 PM CST
Civil Twilight 7:41 AM CST 5:42 PM CST
Nautical Twilight 7:02 AM CST 6:22 PM CST
Astronomical Twilight 6:25 AM CST 6:59 PM CST
Moon 11:13 AM CST (1/18) 12:40 AM CST (1/18)
Length of Visible Light 10h 01m
Length of Day
8h 49m
Waxing Crescent, 47% of the Moon is Illuminated
Jan 18
Waxing Crescent
Jan 18
First Quarter
Jan 26
Full
Feb 3
Last Quarter
Feb 10
New

Hourly Weather History & Observations

Time (CST) Temp. Windchill Dew Point Humidity Pressure Visibility Wind Dir Wind Speed Gust Speed Precip Events Conditions
12:15 AM 5.0 °F -9.1 °F 3.2 °F 92% 30.06 in - SE 9.2 mph - N/A   Overcast
12:35 AM 5.0 °F -9.1 °F 3.2 °F 92% 30.05 in - SE 9.2 mph - N/A Snow Heavy Snow
12:55 AM 5.0 °F -8.1 °F 5.0 °F 100% 30.04 in 1.2 mi SE 8.1 mph - N/A Snow Light Snow
1:15 AM 5.0 °F -8.1 °F 5.0 °F 100% 30.02 in - ESE 8.1 mph - N/A Snow Heavy Snow
1:35 AM 6.8 °F -6.9 °F 5.0 °F 92% 30.00 in - ESE 9.2 mph - N/A Snow Heavy Snow
1:55 AM 6.8 °F -8.6 °F 5.0 °F 92% 29.99 in - ESE 11.5 mph - 0.01 in   Unknown
2:15 AM 6.8 °F -9.3 °F 5.0 °F 92% 29.97 in - ESE 12.7 mph - N/A   Unknown
2:35 AM 6.8 °F -9.3 °F 5.0 °F 92% 29.96 in - SE 12.7 mph - N/A   Overcast
2:55 AM 6.8 °F -9.3 °F 5.0 °F 92% 29.94 in - SE 12.7 mph - N/A   Overcast
3:15 AM 6.8 °F -11.3 °F 5.0 °F 92% 29.92 in - SE 16.1 mph - N/A   Overcast
3:35 AM 6.8 °F -10.0 °F 6.8 °F 100% 29.90 in 10.0 mi SE 13.8 mph - N/A Snow Light Snow
3:55 AM 6.8 °F -9.3 °F 6.8 °F 100% 29.90 in - SE 12.7 mph - N/A Snow Heavy Snow
4:15 AM 6.8 °F -9.3 °F 6.8 °F 100% 29.88 in - SE 12.7 mph - N/A Snow Heavy Snow
4:55 AM 8.6 °F -6.3 °F 6.8 °F 92% 29.87 in - SE 11.5 mph - N/A   Unknown
5:15 AM 8.6 °F -5.5 °F 6.8 °F 92% 29.85 in - ESE 10.4 mph - N/A   Overcast
5:35 AM 8.6 °F -6.3 °F 6.8 °F 92% 29.84 in 7.0 mi SE 11.5 mph - N/A   Mostly Cloudy
5:55 AM 8.6 °F -6.3 °F 6.8 °F 92% 29.83 in 10.0 mi SE 11.5 mph - N/A   Overcast
6:15 AM 8.6 °F -7.7 °F 6.8 °F 92% 29.81 in 10.0 mi SE 13.8 mph - N/A   Overcast
6:35 AM 8.6 °F -5.5 °F 6.8 °F 92% 29.81 in 10.0 mi SE 10.4 mph - N/A   Overcast
6:55 AM 8.6 °F -4.7 °F 6.8 °F 92% 29.81 in 10.0 mi SE 9.2 mph - N/A   Overcast
7:15 AM 8.6 °F -3.7 °F 6.8 °F 92% 29.80 in 3.0 mi ESE 8.1 mph - N/A Snow Light Snow
7:35 AM 8.6 °F -1.3 °F 6.8 °F 92% 29.80 in 3.0 mi East 5.8 mph - N/A Snow Light Snow
7:55 AM 8.6 °F -1.3 °F 8.6 °F 100% 29.79 in 2.5 mi ESE 5.8 mph - N/A Snow Light Snow
8:35 AM 10.4 °F 2.2 °F 8.6 °F 92% 29.79 in 6.0 mi East 4.6 mph - N/A   Mostly Cloudy
8:55 AM 10.4 °F 2.2 °F 8.6 °F 92% 29.79 in 5.0 mi East 4.6 mph - N/A Snow Light Snow
9:15 AM 10.4 °F 2.2 °F 8.6 °F 92% 29.80 in 4.0 mi East 4.6 mph - N/A Snow Light Snow
9:35 AM 10.4 °F 4.0 °F 10.4 °F 100% 29.81 in 1.0 mi East 3.5 mph - 0.01 in Snow Light Snow
10:15 AM 10.4 °F 2.2 °F 8.6 °F 92% 29.82 in 5.0 mi NE 4.6 mph - N/A   Overcast
10:35 AM 10.4 °F 0.8 °F 8.6 °F 92% 29.80 in 10.0 mi ENE 5.8 mph - N/A   Overcast
10:55 AM 10.4 °F 2.2 °F 8.6 °F 92% 29.80 in 10.0 mi NE 4.6 mph - N/A Snow Light Snow
11:15 AM 10.4 °F 0.8 °F 8.6 °F 92% 29.81 in 10.0 mi NE 5.8 mph - N/A   Overcast
11:35 AM 10.4 °F 0.8 °F 8.6 °F 92% 29.79 in 10.0 mi NE 5.8 mph - N/A Snow Light Snow
11:55 AM 10.4 °F 0.8 °F 8.6 °F 92% 29.79 in 10.0 mi NNE 5.8 mph - N/A   Overcast
12:15 PM 10.4 °F 2.2 °F 8.6 °F 92% 29.78 in 10.0 mi NNE 4.6 mph - N/A   Overcast
12:35 PM 10.4 °F - 8.6 °F 92% 29.78 in 10.0 mi Calm Calm - N/A   Overcast
12:55 PM 10.4 °F - 8.6 °F 92% 29.77 in 10.0 mi Calm Calm - N/A   Mostly Cloudy
1:15 PM 10.4 °F 4.0 °F 8.6 °F 92% 29.76 in 10.0 mi North 3.5 mph - N/A Snow Light Snow
1:35 PM 12.2 °F - 8.6 °F 85% 29.76 in 10.0 mi Calm Calm - N/A   Mostly Cloudy
1:55 PM 12.2 °F 6.1 °F 8.6 °F 85% 29.76 in 10.0 mi NW 3.5 mph - N/A Snow Light Snow
2:15 PM 12.2 °F 6.1 °F 8.6 °F 85% 29.76 in 10.0 mi NNE 3.5 mph - N/A   Overcast
2:35 PM 12.2 °F 6.1 °F 8.6 °F 85% 29.75 in 10.0 mi NNE 3.5 mph - N/A Snow Light Snow
2:55 PM 12.2 °F 6.1 °F 8.6 °F 85% 29.75 in 9.0 mi North 3.5 mph - N/A Snow Light Snow
3:15 PM 12.2 °F 6.1 °F 8.6 °F 85% 29.75 in 7.0 mi NNW 3.5 mph - N/A Snow Light Snow
3:35 PM 12.2 °F 6.1 °F 10.4 °F 92% 29.75 in 3.0 mi NNE 3.5 mph - 0.01 in Snow Light Snow
3:55 PM 12.2 °F 6.1 °F 10.4 °F 92% 29.76 in 8.0 mi North 3.5 mph - 0.01 in Snow Light Snow
4:15 PM 12.2 °F 1.7 °F 10.4 °F 92% 29.77 in 10.0 mi NNE 6.9 mph - N/A   Overcast
4:35 PM 12.2 °F 2.9 °F 10.4 °F 92% 29.77 in 10.0 mi NNE 5.8 mph - N/A   Overcast
4:55 PM 12.2 °F 2.9 °F 10.4 °F 92% 29.78 in 10.0 mi NNE 5.8 mph - N/A   Overcast
5:15 PM 10.4 °F 4.0 °F 10.4 °F 100% 29.77 in 10.0 mi NE 3.5 mph - N/A   Overcast
5:35 PM 10.4 °F 2.2 °F 10.4 °F 100% 29.78 in 10.0 mi NE 4.6 mph - N/A Snow Light Snow
5:55 PM 10.4 °F 2.2 °F 10.4 °F 100% 29.76 in 10.0 mi NE 4.6 mph - N/A Snow Light Snow
6:15 PM 10.4 °F 2.2 °F 10.4 °F 100% 29.77 in 10.0 mi NE 4.6 mph - N/A   Overcast
6:35 PM 10.4 °F 2.2 °F 8.6 °F 92% 29.77 in 10.0 mi NNE 4.6 mph - N/A   Overcast
6:55 PM 10.4 °F 4.0 °F 8.6 °F 92% 29.77 in 10.0 mi ENE 3.5 mph - N/A   Overcast
7:15 PM 10.4 °F 0.8 °F 8.6 °F 92% 29.76 in 10.0 mi ENE 5.8 mph - N/A Snow Light Snow
7:35 PM 10.4 °F - 8.6 °F 92% 29.77 in 10.0 mi Calm Calm - N/A Snow Light Snow
7:55 PM 10.4 °F - 8.6 °F 92% 29.77 in 8.0 mi Calm Calm - N/A Snow Light Snow
8:15 PM 10.4 °F 4.0 °F 10.4 °F 100% 29.76 in 7.0 mi NE 3.5 mph - N/A Snow Light Snow
8:35 PM 10.4 °F 4.0 °F 8.6 °F 92% 29.75 in 8.0 mi ENE 3.5 mph - N/A Snow Light Snow
8:55 PM 10.4 °F - 8.6 °F 92% 29.74 in 10.0 mi Calm Calm - N/A   Overcast
9:35 PM 10.4 °F - 10.4 °F 100% 29.73 in 10.0 mi Calm Calm - N/A   Overcast
9:55 PM 10.4 °F 2.2 °F 10.4 °F 100% 29.71 in 10.0 mi SE 4.6 mph - N/A   Overcast
10:15 PM 10.4 °F - 10.4 °F 100% 29.71 in 10.0 mi Calm Calm - N/A   Overcast
10:35 PM 10.4 °F 0.8 °F 10.4 °F 100% 29.69 in 10.0 mi SSE 5.8 mph - N/A   Overcast
10:55 PM 10.4 °F 4.0 °F 10.4 °F 100% 29.70 in 10.0 mi SSE 3.5 mph - N/A Snow Light Snow
11:15 PM 12.2 °F 6.1 °F 10.4 °F 92% 29.69 in 2.0 mi SE 3.5 mph - 0.01 in Snow Light Snow
11:35 PM 12.2 °F 4.3 °F 10.4 °F 92% 29.68 in 9.0 mi SSE 4.6 mph - 0.02 in Snow Light Snow
11:55 PM 12.2 °F 6.1 °F 12.2 °F 100% 29.68 in 5.0 mi SSE 3.5 mph - 0.02 in Snow Light Snow